CAPE
0 0 0 0 0 0 0 0 0 0 0 0 0 0 0 0 0 0 0 0 0 0 0 0 0 0 0 0 0 0 0 0 0 0 0 0 0 0 0 0 0 0 0 0
0 0 0 0 0 0 0 0 0 0 0 0 0 0 0 0 0 0 0 0 0 0 0 0 0 0 0 0 0 0 0 0 0 0 0 0 0 0 0 0 0 0 0 0
0 0 0 0 0 0 0 0 0 0 0 0 0 0 0 0 0 0 0 0 0 0 0 0 0 0 0 0 0 0 0 0 0 0 0 0 0 0 0 0 0 0 0 0
0 0 0 0 0 0 0 0 0 0 0 0 0 0 0 0 0 0 0 0 0 0 0 0 0 0 0 0 0 0 0 0 0 0 0 0 0 0 0 0 0 0 0 0
0 0 0 0 0 0 0 0 0 0 0 0 0 0 0 0 0 0 0 0 0 0 0 0 0 0 0 0 0 0 0 0 0 0 0 0 0 0 0 0 0 0 0 0
0 0 0 0 0 0 0 0 0 0 0 0 0 0 0 0 0 0 0 0 0 0 0 0 0 0 0 0 0 0 0 0 0 0 0 0 0 0 0 0 0 0 0 0
0 0 0 0 0 0 0 0 0 0 0 0 0 0 0 0 0 0 0 0 0 0 0 0 0 0 0 0 0 0 0 0 0 0 0 0 0 0 0 0 0 0 0 0
0 0 0 0 0 0 0 0 0 0 0 0 0 0 0 0 0 0 0 0 0 0 0 0 0 0 0 0 0 0 0 0 0 0 0 0 0 0 0 0 0 0 0 0
0 0 0 0 0 0 0 0 0 0 0 0 0 0 0 0 0 0 0 0 0 0 0 0 0 0 0 0 0 0 0 0 0 0 0 0 0 0 0 0 0 0 0 0
0 0 0 0 0 0 0 0 0 0 0 0 0 0 0 0 0 0 0 0 0 0 0 0 0 0 0 0 0 0 0 0 0 0 0 0 0 0 0 0 0 0 0 0
0 0 0 0 0 0 0 0 0 0 0 0 0 0 0 0 0 0 0 0 0 0 0 0 0 0 0 0 0 0 0 0 0 0 0 0 0 0 0 0 0 0 0 0
0 0 0 0 0 0 0 0 0 0 0 0 0 0 0 0 0 0 0 0 0 0 0 0 0 0 0 0 0 0 0 0 0 0 0 0 0 0 0 0 0 0 0 0
0 0 0 0 0 0 0 0 0 0 0 0 0 0 0 0 0 0 0 0 0 0 0 0 0 0 0 0 0 0 0 0 0 0 0 0 0 0 0 0 0 0 0 0
0 0 0 0 0 0 0 0 0 0 0 0 0 0 0 0 0 0 0 0 0 0 0 0 0 0 0 0 0 0 0 0 0 0 0 0 0 0 0 0 0 0 0 0
0 0 0 0 0 0 0 0 0 0 0 0 0 0 0 0 0 0 0 0 0 0 0 0 0 0 0 0 0 0 0 0 0 0 0 0 0 0 0 0 0 0 0 0
0 0 0 0 0 0 0 0 0 0 0 0 0 0 0 0 0 0 0 0 0 0 0 0 0 0 0 0 0 0 0 0 0 0 0 0 0 0 0 0 0 0 0 0
0 0 0 0 0 0 0 0 0 0 0 0 0 0 0 0 0 0 0 0 0 0 0 0 0 0 0 0 0 0 0 0 0 0 0 0 0 0 0 0 0 0 0 0
0 0 0 0 0 0 0 0 0 0 0 0 0 0 0 0 0 0 0 0 0 0 0 0 0 0 0 0 0 0 0 0 0 0 0 0 0 0 0 0 0 0 0 0
0 0 0 0 0 0 0 0 0 0 0 0 0 0 0 0 0 0 0 0 0 0 0 0 0 0 0 0 0 0 0 0 0 0 0 0 0 0 0 0 0 0 0 0
0 0 0 0 0 0 0 0 0 0 0 0 0 0 0 0 0 0 0 0 0 0 0 0 0 0 0 0 0 0 0 0 0 0 0 0 0 0 0 0 0 0 0 0
0 0 0 1 1 0 0 0 0 0 0 0 0 0 0 0 0 0 0 0 0 0 0 0 0 0 0 0 0 0 0 0 0 0 0 0 0 0 0 0 0 0 0 0
0 0 0 0 0 0 0 0 0 0 0 0 0 0 0 0 0 0 0 0 0 0 0 0 0 0 0 0 0 0 0 0 0 0 0 0 0 0 0 0 0 0 0 0
0 0 0 0 0 0 0 0 0 0 0 0 0 0 0 0 0 0 0 0 0 0 0 0 0 0 0 0 0 0 0 0 0 0 0 0 0 0 0 0 0 0 0 0
0 0 0 0 0 0 3 0 0 0 0 0 0 0 0 0 0 0 0 0 0 0 0 0 0 0 0 0 0 0 0 0 0 0 0 0 0 0 0 0 0 0 0 0
0 0 0 0 0 0 0 1 0 0 0 0 0 0 0 0 0 0 0 0 0 0 0 0 0 0 0 0 0 0 0 0 0 0 0 0 0 0 0 0 0 0 0 0
0 0 0 0 0 0 1 2 1 0 0 0 0 0 0 0 0 0 0 0 0 0 0 0 0 0 0 1 0 0 0 0 0 0 0 0 0 0 0 0 0 0 0 0
0 0 0 0 0 1 0 0 0 0 0 0 0 0 0 0 0 0 0 0 0 0 0 0 0 0 1 2 1 0 0 0 0 0 0 0 0 0 0 0 0 0 0 0
CIN
-0 -0 -0 -0 -0 -0 -0 -0 -0 -0 -0 -0 -0 -0 -0 -0 -0 -0 -0 -0 -0 -0 -0 -0 -0 -0 -0 -0 -0 -0 -0 -0 -0 -0 -0 -0 -0 -0 -0 -0 -0 -0 -0 -0
-0 -0 -0 -0 -0 -0 -0 -0 -0 -0 -0 -0 -0 -0 -0 -0 -0 -0 -0 -0 -0 -0 -0 -0 -0 -0 -0 -0 -0 -0 -0 -0 -0 -0 -0 -0 -0 -0 -0 -0 -0 -0 -0 -0
-0 -0 -0 -0 -0 -0 -0 -0 -0 -0 -0 -0 -0 -0 -0 -0 -0 -0 -0 -0 -0 -0 -0 -0 -0 -0 -0 -0 -0 -0 -0 -0 -0 -0 -0 -0 -0 -0 -0 -0 -0 -0 -0 -0
-0 -0 -0 -0 -0 -0 -0 -0 -0 -0 -0 -0 -0 -0 -0 -0 -0 -0 -0 -0 -0 -0 -0 -0 -0 -0 -0 -0 -0 -0 -0 -0 -0 -0 -0 -0 -0 -0 -0 -0 -0 -0 -0 -0
-0 -0 -0 -0 -0 -0 -0 -0 -0 -0 -0 -0 -0 -0 -0 -0 -0 -0 -0 -0 -0 -0 -0 -0 -0 -0 -0 -0 -0 -0 -0 -0 -0 -0 -0 -0 -0 -0 -0 -0 -0 -0 -0 -0
-0 -0 -0 -0 -0 -0 -0 -0 -0 -0 -0 -0 -0 -0 -0 -0 -0 -0 -0 -0 -0 -0 -0 -0 -0 -0 -0 -0 -0 -0 -0 -0 -0 -0 -0 -0 -0 -0 -0 -0 -0 -0 -0 -0
-0 -0 -0 -0 -0 -0 -0 -0 -0 -0 -0 -0 -0 -0 -0 -0 -0 -0 -0 -0 -0 -0 -0 -0 -0 -0 -0 -0 -0 -0 -0 -0 -0 -0 -0 -0 -0 -0 -0 -0 -0 -0 -0 -0
-0 -0 -0 -0 -0 -0 -0 -0 -0 -0 -0 -0 -0 -0 -0 -0 -0 -0 -0 -0 -0 -0 -0 -0 -0 -0 -0 -0 -0 -0 -0 -0 -0 -0 -0 -0 -0 -0 -0 -0 -0 -0 -0 -0
-0 -0 -0 -0 -0 -0 -0 -0 -0 -0 -0 -0 -0 -0 -0 -0 -0 -0 -0 -0 -0 -0 -0 -0 -0 -0 -0 -0 -0 -0 -0 -0 -0 -0 -0 -0 -0 -0 -0 -0 -0 -0 -0 -0
-0 -0 -0 -0 -0 -0 -0 -0 -0 -0 -0 -0 -0 -0 -0 -0 -0 -0 -0 -0 -0 -0 -0 -0 -0 -0 -0 -0 -0 -0 -0 -0 -0 -0 -0 -0 -0 -0 -0 -0 -0 -0 -0 -0
-0 -0 -0 -0 -0 -0 -0 -0 -0 -0 -0 -0 -0 -0 -0 -0 -0 -0 -0 -0 -0 -0 -0 -0 -0 -0 -0 -0 -0 -0 -0 -0 -0 -0 -0 -0 -0 -0 -0 -0 -0 -0 -0 -0
-0 -0 -0 -0 -0 -0 -0 -0 -0 -0 -0 -0 -0 -0 -0 -0 -0 -0 -0 -0 -0 -0 -0 -0 -0 -0 -0 -0 -0 -0 -0 -0 -0 -0 -0 -0 -0 -0 -0 -0 -0 -0 -0 -0
-0 -0 -0 -0 -0 -0 -0 -0 -0 -0 -0 -0 -0 -0 -0 -0 -0 -0 -0 -0 -0 -0 -0 -0 -0 -0 -0 -0 -0 -0 -0 -0 -0 -0 -0 -0 -0 -0 -0 -0 -0 -0 -0 -0
-0 -0 -0 -0 -0 -0 -0 -0 -0 -0 -0 -0 -0 -0 -0 -0 -0 -0 -0 -0 -0 -0 -0 -0 -0 -0 -0 -0 -0 -0 -0 -0 -0 -0 -0 -0 -0 -0 -0 -0 -0 -0 -0 -0
-0 -0 -0 -0 -0 -0 -0 -0 -0 -0 -0 -0 -0 -0 -0 -0 -0 -0 -0 -0 -0 -0 -0 -0 -0 -0 -0 -0 -0 -0 -0 -0 -0 -0 -0 -0 -0 -0 -0 -0 -0 -0 -0 -0
-0 -0 -0 -0 -0 -0 -0 -0 -0 -0 -0 -0 -0 -0 -0 -0 -0 -0 -0 -0 -0 -0 -0 -0 -0 -0 -0 -0 -0 -0 -0 -0 -0 -0 -0 -0 -0 -0 -0 -0 -0 -0 -0 -0
-0 -0 -0 -0 -0 -0 -0 -0 -0 -0 -0 -0 -0 -0 -0 -0 -0 -0 -0 -0 -0 -0 -0 -0 -0 -0 -0 -0 -0 -0 -0 -0 -0 -0 -0 -0 -0 -0 -0 -0 -0 -0 -0 -0
-0 -0 -0 -0 -0 -0 -0 -0 -0 -0 -0 -0 -0 -0 -0 -0 -0 -0 -0 -0 -0 -0 -0 -0 -0 -0 -0 -0 -0 -0 -0 -0 -0 -0 -0 -0 -0 -0 -0 -0 -0 -0 -0 -0
-0 -0 -0 -0 -0 -0 -0 -0 -0 -0 -0 -0 -0 -0 -0 -0 -0 -0 -0 -0 -0 -0 -0 -0 -0 -0 -0 -0 -0 -0 -0 -0 -0 -0 -0 -0 -0 -0 -0 -0 -0 -0 -0 -0
-0 -0 -0 -0 -0 -0 -0 -0 -0 -0 -0 -0 -0 -0 -0 -0 -0 -0 -0 -0 -0 -0 -0 -0 -0 -0 -0 -0 -0 -0 -0 -0 -0 -0 -0 -0 -0 -0 -0 -0 -0 -0 -0 -0
-0 -0 -0 -0 -0 -0 -0 -0 -0 -0 -0 -0 -0 -0 -0 -0 -0 -0 -0 -0 -0 -0 -0 -0 -0 -0 -0 -0 -0 -0 -0 -0 -0 -0 -0 -0 -0 -0 -0 -0 -0 -0 -0 -0
-0 -0 -0 -0 -0 -0 -0 -0 -0 -0 -0 -0 -0 -0 -0 -0 -0 -0 -0 -0 -0 -0 -0 -0 -0 -0 -0 -0 -0 -0 -0 -0 -0 -0 -0 -0 -0 -0 -0 -0 -0 -0 -0 -0
-0 -0 -0 -0 -0 -0 -0 -0 -0 -0 -0 -0 -0 -0 -0 -0 -0 -0 -0 -0 -0 -0 -0 -0 -0 -0 -0 -0 -0 -0 -0 -0 -0 -0 -0 -0 -0 -0 -0 -0 -0 -0 -0 -0
-0 -0 -0 -0 -0 -0 -0 -0 -0 -0 -0 -0 -0 -0 -0 -0 -0 -0 -0 -0 -0 -0 -0 -0 -0 -0 -0 -0 -0 -0 -0 -0 -0 -0 -0 -0 -0 -0 -0 -0 -1 -0 -0 -0
-0 -0 -0 -0 -0 -0 -0 -0 -0 -0 -0 -0 -0 -0 -0 -0 -0 -0 -0 -0 -0 -0 -0 -0 -0 -0 -0 -0 -0 -0 -0 -0 -0 -0 -0 -0 -0 -0 -0 -0 -0 -0 -0 -0
-0 -0 -0 -0 -0 -0 -0 -0 -0 -0 -0 -0 -0 -0 -0 -0 -0 -0 -0 -0 -0 -0 -0 -0 -0 -0 -0 -0 -0 -0 -0 -0 -0 -0 -0 -0 -0 -0 -0 -0 -0 -0 -0 -0
-0 -0 -0 -0 -0 -0 -0 -0 -0 -0 -0 -0 -0 -0 -0 -0 -0 -0 -0 -0 -0 -0 -0 -0 -0 -0 -0 -0 -0 -0 -0 -0 -0 -0 -0 -0 -0 -0 -0 -0 -0 -0 -0 -0
Wind_Speed
25 29 27 30 31 26 23 24 37 42 43 41 42 40 31 8 4 4 4 5 7 6 5 5 5 5 5 5 5 5 4 4 5 6 7 8 9 10 11 13 14 15 16 17
22 29 30 34 35 33 32 37 41 46 47 43 36 30 30 17 7 5 5 6 6 7 7 6 5 5 4 4 4 4 3 3 4 5 6 7 9 10 11 12 14 15 16 16
22 22 27 33 34 32 31 30 31 34 35 35 40 38 33 27 16 5 4 4 5 7 8 8 6 5 5 4 3 2 2 2 3 4 5 6 8 9 10 12 13 14 15 15
24 22 25 28 25 27 27 28 31 37 39 39 40 37 31 27 24 16 7 5 4 4 6 7 7 6 5 4 4 3 2 1 2 2 4 6 7 8 10 11 12 13 13 14
20 20 23 37 28 26 27 28 24 29 31 33 31 28 22 23 18 21 19 11 6 2 3 5 6 7 7 6 6 6 5 4 2 1 2 4 5 6 8 9 11 11 12 12
17 21 23 19 18 17 21 32 22 24 29 30 28 27 24 25 24 23 20 18 11 6 2 3 5 6 7 7 7 7 6 5 4 2 1 2 3 5 7 7 9 10 10 10
19 22 22 16 14 16 26 29 22 26 27 28 29 28 31 29 28 26 24 18 14 10 6 3 3 5 6 7 8 6 5 5 4 3 2 1 2 4 6 7 8 9 9 9
20 23 27 11 13 15 17 19 25 25 28 29 30 32 32 30 29 27 25 21 16 13 10 6 4 4 5 7 4 5 5 4 4 3 2 1 2 3 5 6 7 9 9 10
18 20 16 9 13 9 12 19 23 25 29 31 32 31 31 31 30 27 26 23 19 16 14 11 7 5 6 5 3 3 3 3 3 3 2 1 1 3 4 5 6 8 10 11
26 22 25 22 17 17 19 19 17 23 30 30 31 31 32 31 30 30 28 25 21 18 16 13 10 8 7 5 4 3 3 3 2 2 1 1 1 2 3 5 6 7 9 10
27 28 32 27 20 18 21 20 21 25 27 26 30 34 35 35 34 32 30 27 24 21 20 16 12 11 9 8 6 5 4 3 3 2 2 1 1 1 3 3 5 6 7 9
29 24 27 25 19 18 26 29 29 25 24 25 33 39 39 40 38 37 34 29 27 25 21 18 14 12 10 9 8 7 6 5 4 4 3 3 3 3 1 1 3 4 4 5
31 29 31 32 34 38 38 36 34 25 30 37 37 38 39 42 41 40 37 34 30 27 23 19 16 14 11 9 8 8 7 6 7 5 5 5 4 4 5 5 4 4 4 5
27 30 31 29 30 32 36 42 45 47 44 39 38 39 40 42 44 42 41 38 34 30 25 21 18 16 12 10 8 8 7 7 6 7 6 6 6 6 6 5 6 7 6 7
32 32 36 42 40 38 41 44 46 45 43 42 41 43 41 42 46 46 42 38 35 32 28 24 21 18 14 11 10 9 8 8 7 6 6 6 6 7 7 6 6 7 9 9
24 27 31 34 36 40 40 41 45 45 47 48 45 42 39 36 42 44 42 37 36 36 31 27 23 20 16 14 13 11 10 8 7 6 6 5 5 6 7 6 6 6 7 7
27 31 35 35 31 32 34 35 38 40 43 44 42 41 42 40 38 42 43 37 36 37 34 30 27 23 18 16 14 14 12 10 8 7 6 5 4 4 6 7 6 5 7 8
26 27 26 28 30 33 36 37 38 38 41 44 45 44 43 41 39 39 42 38 34 37 34 31 28 25 22 19 17 16 14 12 10 9 7 6 5 4 5 6 6 6 6 8
16 18 21 25 29 33 36 39 40 41 43 43 45 46 44 43 41 36 39 40 41 39 39 30 27 26 25 21 18 17 15 14 12 10 9 7 6 5 4 5 6 6 6 7
15 17 21 25 28 30 34 36 39 41 41 42 43 44 46 44 42 39 36 41 41 40 37 32 28 27 27 24 20 19 18 16 13 12 10 8 8 6 5 4 5 6 6 6
17 19 22 26 29 31 33 35 37 40 42 42 43 44 45 45 42 41 41 43 39 38 35 33 30 29 27 25 22 22 19 17 14 13 11 10 9 7 6 5 5 6 6 7
19 22 25 27 30 31 32 34 35 38 40 42 42 42 43 43 41 40 37 40 38 35 33 31 32 29 27 24 24 24 21 18 16 14 12 11 10 9 7 6 5 5 6 6
23 25 27 29 30 31 33 32 34 35 38 39 42 42 41 39 39 40 40 34 34 33 30 31 30 29 25 23 24 24 22 20 18 15 14 12 11 10 9 8 6 5 5 5
25 28 29 29 29 30 32 32 33 35 37 38 38 38 37 38 37 35 34 34 35 33 30 31 28 25 26 25 24 24 23 20 19 17 15 13 13 11 10 9 7 6 5 4
27 28 28 28 28 30 31 30 32 34 37 37 37 36 36 35 35 37 35 34 33 31 29 29 26 23 25 28 24 23 23 23 21 19 17 15 14 13 11 10 9 7 5 4
24 26 27 27 27 28 29 29 32 34 34 36 36 36 37 36 35 35 33 33 32 29 25 25 24 22 23 28 27 24 24 23 22 20 18 17 15 13 12 10 9 8 6 5
22 22 23 25 27 28 29 31 32 33 32 33 36 36 37 36 35 35 33 32 30 27 24 25 24 21 20 24 27 25 24 24 22 21 19 18 16 14 13 11 10 8 7 6
Wind_Direction
305 300 299 295 290 291 288 292 286 275 278 290 281 275 274 313 261 217 197 187 185 183 178 168 160 154 144 133 125 112 97 80 67 57 48 41 35 32 30 28 27 27 26 25
312 305 298 292 289 289 287 287 285 280 269 285 300 310 311 320 310 243 218 204 196 190 189 187 179 169 157 146 134 119 102 78 62 52 41 36 31 29 28 26 26 27 26 25
311 317 309 299 293 289 289 289 291 292 296 300 295 298 303 306 317 292 249 226 207 201 194 191 187 179 178 167 138 131 109 70 53 44 34 30 28 26 25 24 25 25 25 24
312 314 305 307 309 303 294 295 291 289 290 297 296 298 300 299 306 313 307 291 240 214 198 191 183 180 174 169 169 164 160 140 72 47 32 28 24 22 23 23 22 23 22 22
309 305 308 303 304 300 300 296 304 296 300 304 311 312 319 317 310 307 313 315 309 261 213 187 183 177 175 175 174 176 178 176 157 108 50 31 20 19 21 21 20 21 21 19
309 311 314 330 328 321 312 292 302 308 305 307 312 308 314 319 318 315 313 313 314 314 274 199 185 175 178 182 180 185 181 175 163 148 114 39 24 19 20 21 18 20 19 19
288 299 310 321 324 320 299 298 310 306 309 308 305 305 306 311 309 313 314 317 314 312 303 271 207 185 190 189 194 182 171 169 167 158 150 86 29 23 21 20 18 17 16 18
293 298 302 323 325 308 316 317 312 309 308 308 306 304 303 305 307 309 311 315 314 310 306 302 269 221 214 207 195 181 173 172 173 168 152 91 41 26 22 19 16 16 17 20
286 295 315 332 331 328 340 335 319 312 309 305 305 304 310 305 303 308 309 310 311 308 306 302 288 256 244 236 219 202 193 193 186 176 171 156 60 25 21 19 18 18 20 22
292 292 292 295 296 299 304 311 318 317 310 307 302 304 306 310 309 305 306 308 309 307 303 299 291 279 270 272 264 245 231 227 219 215 211 187 53 29 21 20 20 22 23 24
291 292 296 297 295 298 305 310 313 314 313 307 302 300 301 301 303 305 306 305 304 304 301 298 294 288 283 278 274 272 265 261 264 269 266 296 314 9 18 24 28 25 28 28
289 300 305 303 313 307 304 303 306 310 310 308 304 298 299 296 298 298 300 303 302 299 300 298 293 289 283 274 271 274 278 281 291 306 320 328 343 356 359 351 16 24 26 28
290 293 294 296 293 293 297 300 301 303 304 302 301 300 299 295 294 294 295 296 297 297 296 296 292 288 284 272 266 267 272 288 304 304 318 329 343 354 4 28 39 41 42 45
296 294 292 294 297 299 298 293 291 290 295 299 300 300 298 294 292 290 289 290 292 293 292 290 289 286 282 276 268 268 265 279 294 309 312 325 337 349 5 18 25 35 53 53
286 287 289 290 292 295 293 293 291 293 297 297 298 298 298 294 289 286 288 287 287 288 288 286 284 284 281 277 273 271 270 281 283 303 310 321 334 344 354 9 24 31 45 47
295 294 295 296 299 297 298 298 295 296 294 294 297 298 299 298 291 288 286 285 281 281 282 282 282 282 277 275 277 280 278 275 286 291 304 310 323 335 346 358 17 31 37 50
295 295 297 299 305 306 305 304 303 303 300 299 300 301 298 297 295 290 284 284 281 279 279 278 281 281 275 271 272 279 282 281 275 292 293 301 312 322 338 349 3 29 36 45
295 299 302 304 307 306 304 303 305 306 304 299 297 298 296 296 296 293 288 283 280 277 278 279 277 276 274 270 269 274 277 280 276 279 289 294 301 317 332 341 352 6 33 39
305 309 311 312 310 306 304 303 303 303 302 302 299 296 299 296 296 295 290 284 276 275 275 278 276 272 270 266 263 268 269 273 278 281 285 292 297 308 319 331 342 352 12 33
312 316 316 316 315 316 312 310 309 307 308 308 305 302 298 299 298 295 291 283 279 276 277 276 274 270 270 265 256 265 264 266 271 278 283 287 295 299 306 316 330 343 352 13
314 318 317 316 316 317 317 316 315 312 309 310 307 305 301 302 302 298 291 283 282 281 276 271 271 271 268 265 254 261 259 260 264 270 276 280 288 293 301 308 315 327 339 349
313 313 314 316 316 317 320 321 320 318 318 314 312 310 306 304 306 302 296 287 284 284 278 270 268 268 267 261 256 258 256 256 260 266 272 276 282 286 290 295 302 313 327 339
308 312 314 316 316 317 319 323 327 327 324 320 314 311 309 310 309 303 296 296 288 284 280 272 269 265 262 258 257 255 253 253 256 261 268 274 278 283 285 289 292 302 314 328
311 312 316 318 318 317 319 324 326 326 323 322 320 318 316 312 311 309 305 296 288 284 281 274 270 264 257 259 258 255 253 252 256 261 267 271 275 280 282 284 283 291 301 311
315 318 321 322 321 321 320 322 325 323 323 324 325 322 318 313 310 306 303 297 291 287 285 277 273 266 259 259 258 255 254 255 257 260 265 268 271 272 276 278 278 278 285 288
323 325 325 325 325 323 321 321 319 319 322 322 325 327 321 313 309 301 306 297 293 294 290 283 276 270 263 261 259 257 256 256 256 260 263 266 268 268 271 271 272 269 271 272
332 336 333 330 327 327 326 322 320 318 319 322 321 322 322 317 307 304 301 297 296 295 294 289 280 273 268 266 261 260 259 259 258 260 262 264 264 265 266 266 265 263 263 263